"Time","Temp","Dewpoint","Humidity","Pressure","Direction","Speed","Gust","Precip","PrecipRate"
"00:04:56","60.5","58.8","94.2","30.05","117","4.3","9.2","0.12","0.11"
"00:09:57","60.2","58.8","95","30.05","149","4.2","10.4","0.16","0.15"
"00:14:59","60","58.6","95","30.05","119","2.4","7","0.19","0.19"
"00:19:56","59.8","58.4","95","30.02","105","2.2","4","0.20","0.20"
"00:24:58","59.7","58.3","95","30.02","103","2.1","5","0.22","0.22"
"00:29:55","59.5","58.1","95","30.02","111","3.3","7","0.23","0.23"
"00:34:56","59.4","58.1","95.2","30.00","109","2.1","5.8","0.24","0.23"
"00:39:57","59.4","58.3","96","30.00","117","3.8","9.2","0.27","0.26"
"00:44:59","59.3","58.2","96","30.01","123","3.6","7","0.28","0.28"
"00:49:56","59.3","58.2","96","30.01","112","1.9","5","0.30","0.30"
"00:54:57","59.2","58.1","96","30.01","152","2.6","6","0.32","0.32"
"00:59:58","59.2","58.1","96","30.01","168","1.3","5","0.36","0.32"
"01:04:59","59.1","58","96","30.01","110","2.2","5","0.39","0.36"
"01:09:57","59","57.9","96","30.01","117","2.2","4","0.42","0.28"
"01:14:59","59","57.9","96","30.01","154","1.6","4","0.44","0.26"
"01:19:56","58.9","57.8","96","29.99","171","1.4","3","0.44","0.25"
"01:24:58","58.8","57.7","96","29.99","179","0.6","4","0.45","0.24"
"01:29:59","58.8","57.7","96","29.99","178","0.9","3","0.45","0.23"
"01:34:56","58.7","57.6","96","29.99","176","1.5","4","0.45","0.22"
"01:39:58","58.8","57.7","96","29.99","193","2.6","5","0.47","0.21"
"01:44:56","58.8","57.7","96","30.03","221","2.4","5","0.56","0.26"
"01:49:57","58.7","57.6","96","30.03","181","1.2","4","0.63","0.32"
"01:54:58","58.6","57.6","96.3","30.03","162","1.8","5","0.68","0.35"
"01:59:59","58.6","57.5","96.1","30.03","160","3.2","7","0.70","0.36"
"02:04:56","58.5","57.4","96","30.03","194","2.5","7","0.71","0.34"
"02:09:58","58.5","57.4","96","30.03","197","2.8","9.2","0.72","0.32"
"02:14:56","58.5","57.4","96","30.03","194","2.7","8.1","0.76","0.31"
"02:19:57","58.4","57.4","96.3","30.01","177","1.1","3.5","0.78","0.34"
"02:24:58","58.4","57.6","97","30.01","167","1.2","5","0.79","0.34"
"02:29:56","58.3","57.5","97","30.01","162","2","4.6","0.80","0.35"
"02:34:57","58.3","57.5","97","30.01","165","2","4","0.82","0.36"
"02:39:59","58.3","57.5","97","30.01","160","2.6","9.2","0.83","0.37"
"02:44:56","58.3","57.5","97","30.01","185","3.1","6","0.84","0.36"
"02:49:57","58.2","57.4","97","30.01","157","2.4","7","0.86","0.28"
"02:54:58","58.2","57.4","97","30.01","140","1.3","3.5","0.87","0.23"
"02:59:59","58.1","57.3","97","30.01","122","2.2","5","0.88","0.19"
"03:04:57","58","57.2","97","29.98","114","1.5","5","0.88","0.18"
"03:09:59","57.9","57.1","97","29.98","127","1.2","4","0.89","0.18"
"03:14:57","57.8","57","97","29.98","131","0","1.2","0.90","0.17"
"03:19:58","57.7","56.9","97","29.95","131","0","0","0.90","0.14"
"03:24:56","57.7","56.9","97","29.95","131","0","0","0.90","0.12"
"03:29:57","57.7","56.9","97","29.95","131","0","0","0.90","0.11"
"03:34:56","57.6","56.8","97","29.95","131","0","0","0.90","0.10"
"03:39:58","57.7","56.9","97","29.95","131","0","0","0.90","0.08"
"03:44:56","57.6","56.8","97","29.96","131","0","0","0.90","0.07"
"03:49:58","57.6","56.8","97","29.96","131","0","0","0.90","0.06"
"03:54:56","57.6","56.8","97","29.96","131","0","0","0.90","0.04"
"03:59:57","57.5","56.7","97","29.96","132","0","0","0.90","0.03"
"04:04:58","57.5","56.7","97","29.96","165","0.3","4","0.90","0.02"
"04:09:56","57.5","56.7","97","29.96","181","1.6","5","0.90","0.01"
"04:14:59","57.5","56.7","97","29.97","187","2.2","7","0.90","0.01"
"04:19:56","57.6","56.8","97","29.97","192","1.1","4","0.90","0.00"
"04:24:57","57.6","56.8","97","29.97","178","2","5","0.91","0.01"
"04:29:59","57.5","56.7","97","29.97","194","3.6","6","0.91","0.01"
"04:34:56","57.6","56.8","97","29.97","166","2.8","6","0.91","0.01"
"04:39:58","57.6","56.8","97","29.97","173","1.2","5.8","0.92","0.02"
"04:44:59","57.6","56.8","97","29.97","171","1.1","3.5","0.92","0.02"
"04:49:56","57.6","56.8","97","29.96","171","0.8","3.5","0.92","0.02"
"04:54:58","57.6","56.8","97","29.96","172","1.3","3.5","0.92","0.02"
"04:59:59","57.6","56.8","97","29.97","171","0.9","3.5","0.92","0.02"
"05:04:56","57.6","56.8","97","29.97","171","0.4","2.3","0.92","0.02"
"05:09:58","57.6","56.8","97","29.97","172","0","0","0.92","0.02"
"05:14:56","57.6","56.8","97","29.97","172","0","0","0.92","0.02"
"05:19:58","57.6","56.8","97","29.96","172","0","0","0.93","0.03"
"05:24:59","57.6","56.8","97","29.96","171","0","0","0.93","0.03"
"05:29:56","57.6","56.8","97","29.96","172","0","0","0.93","0.02"
"05:34:57","57.6","56.8","97","29.96","171","0.3","2.3","0.93","0.02"
"05:39:56","57.6","56.8","97","29.96","171","0","0","0.93","0.02"
"05:44:53","57.6","56.8","97","29.96","171","0","0","0.93","0.01"
"05:49:59","57.6","56.8","97","29.96","171","0","0","0.93","0.01"
"05:54:56","57.6","56.8","97","29.96","171","0","0","0.93","0.01"
"05:59:58","57.6","56.8","97","29.96","171","0","0","0.93","0.01"
"06:04:59","57.5","56.7","97","29.96","172","0","0","0.93","0.01"
"06:09:58","57.5","56.7","97","29.96","172","0","0","0.93","0.01"
"06:14:56","57.5","56.7","97","29.96","171","0.7","2.3","0.94","0.01"
"06:19:58","57.5","56.7","97","29.96","171","0.5","2.3","0.94","0.02"
"06:24:56","57.5","56.7","97","29.96","171","0.3","2.3","0.94","0.01"
"06:29:57","57.5","56.7","97","29.96","171","0.9","2.3","0.94","0.01"
"06:34:59","57.6","56.8","97","29.96","171","1","2.3","0.94","0.01"
"06:39:57","57.6","56.8","97","29.96","173","1.8","4","0.94","0.01"
"06:44:59","57.6","56.8","97","29.98","174","1.6","3.5","0.94","0.01"
"06:49:56","57.6","56.8","97","29.98","174","1.8","3.5","0.94","0.01"
"06:54:57","57.6","56.8","97","29.98","175","2.1","4","0.94","0.01"
"06:59:59","57.6","56.8","97","29.98","176","1.1","3","0.94","0.01"
"07:04:52","57.6","56.8","97","29.98","176","1.4","3.5","0.94","0.01"
"07:09:58","57.6","56.8","97","29.98","176","0.3","2.3","0.94","0.01"
"07:14:56","57.6","56.8","97","29.98","175","0.7","3.5","0.94","0.01"
"07:19:57","57.6","56.9","97.2","29.98","143","0.5","5","0.94","0.00"
"07:24:59","57.6","56.8","97.1","29.98","134","0.9","4.6","0.94","0.00"
"07:29:56","57.6","56.8","97","29.98","131","2.2","4","0.94","0.00"
"07:34:57","57.6","56.8","97","29.96","128","2.5","6","0.95","0.01"
"07:39:59","57.5","56.7","97","29.96","150","1.6","4","0.96","0.02"
"07:44:56","57.6","56.8","97","29.96","133","2.1","5","0.96","0.02"
"07:49:57","57.6","56.8","97","29.96","136","2.6","7","0.97","0.03"
"07:54:59","57.6","56.9","97.3","29.96","180","3","6.9","0.97","0.03"
"07:59:57","57.7","57","97.7","29.96","171","2.3","5","0.97","0.03"
"08:04:57","57.7","57.1","98","29.96","199","3.3","6","0.97","0.03"
"08:09:59","57.8","57.2","98","29.96","181","2.6","6","0.98","0.04"
"08:14:57","58","57.4","98","29.96","185","2.4","5","0.98","0.04"
"08:19:59","58.2","57.6","98","29.96","193","2.2","4.6","0.98","0.04"
"08:24:56","58.2","57.5","97.5","29.96","193","1.9","4","0.98","0.04"
"08:29:57","58.2","57.5","97.5","29.97","193","1.1","4","0.98","0.04"
"08:34:58","58.2","57.5","97.7","29.97","193","1.8","4","0.98","0.04"
"08:39:56","58.2","57.5","97.6","29.97","182","1.2","4","0.98","0.03"
"08:44:58","58.2","57.6","98","29.97","163","0.8","3.5","0.98","0.02"
"08:49:59","58.3","57.7","98","29.95","163","1.8","4","0.98","0.02"
"08:54:57","58.5","57.9","98","29.95","159","1.7","4","0.98","0.01"
"08:59:58","58.5","57.9","98","29.96","144","1.4","4","0.98","0.01"
"09:04:59","58.6","58","98","29.96","146","1.1","3.5","0.98","0.01"
"09:09:56","58.8","58.2","98","29.96","168","2.2","4","0.98","0.01"
"09:14:59","59","58.4","98","29.97","178","1.5","3.5","0.98","0.00"
"09:19:56","59.1","58.5","98","29.97","178","1.5","3.5","0.98","0.00"
"09:24:58","59.2","58.6","98","29.97","179","1.4","3.5","0.98","0.00"
"09:29:58","59.1","58.5","98","29.97","195","1.4","4","0.98","0.00"
"09:34:59","59.4","58.8","98","29.97","196","1.6","3.5","0.98","0.00"
"09:39:58","59.6","59","98","29.97","196","1.3","3.5","0.98","0.00"
"09:44:59","59.8","59.2","98","29.97","195","1.6","4","0.98","0.00"
"09:49:56","60","59.4","98","29.97","198","2","5","0.98","0.00"
"09:54:57","60.3","59.7","98","29.97","205","1.4","4","0.98","0.00"
"09:59:58","60.5","59.9","98","29.97","188","2.9","5","0.98","0.00"
"10:04:59","60.6","60","98","29.96","187","1.6","5","0.98","0.00"
"10:09:57","60.8","60.2","98","29.96","196","2.8","5","0.98","0.00"
"10:14:56","61","60.4","98","29.96","194","1.8","5","0.98","0.00"
"10:19:57","61.1","60.5","98","29.96","146","1.8","4.6","0.98","0.00"
"10:24:58","61.1","60.5","98","29.96","170","2.3","5","0.98","0.00"
"10:29:59","61.2","60.6","98","29.96","184","1.9","4.6","0.98","0.00"
"10:34:56","61.5","60.9","98","29.96","184","2.3","4","0.98","0.00"
"10:39:58","61.6","60.9","97.7","29.96","185","1.3","4","0.98","0.00"
"10:44:59","62.1","61.5","98","29.96","166","1.5","5","0.98","0.00"
"10:49:56","62.5","61.8","97.6","29.96","183","2.3","5","0.98","0.00"
"10:54:57","62.6","61.7","97","29.96","184","1.7","3.5","0.98","0.00"
"10:59:59","62.8","61.9","97","29.96","184","1.4","3.5","0.98","0.00"
"11:04:59","63.1","62.1","96.7","29.96","162","2.7","5","0.98","0.00"
"11:09:57","63.3","62.1","96","29.96","186","2.4","5","0.98","0.00"
"11:14:59","63.6","62.3","95.8","29.96","188","2.1","5","0.98","0.00"
"11:19:57","63.8","62.4","95.2","29.96","128","2.4","5","0.98","0.00"
"11:24:58","63.9","62.3","94.5","29.96","126","1.3","4","0.98","0.00"
"11:29:59","64.2","62.7","95.1","29.96","162","2.2","6","0.98","0.00"
"11:34:56","64.4","62.6","94.1","29.96","167","1.7","5.8","0.98","0.00"
"11:39:58","64.4","62.3","93","29.96","157","1.5","4.6","0.98","0.00"
"11:44:59","64.6","62.7","93.5","29.96","148","1.6","4","0.98","0.00"
"11:49:56","64.9","62.8","93","29.96","127","2.6","5","0.98","0.00"
"11:54:57","65.5","63.4","93","29.96","158","2.6","6","0.98","0.00"
"11:59:58","66.2","63.7","91.6","29.96","131","2.2","6","0.98","0.00"
"12:04:59","66.6","64.1","91.6","29.95","116","1.2","5","0.98","0.00"
"12:09:57","66.6","63.4","89.3","29.95","114","1.4","4","0.98","0.00"
"12:14:56","66.4","63.4","90.1","29.95","138","2.4","4","0.98","0.00"
"12:19:57","66.4","63.6","90.7","29.95","143","1.3","3.5","0.98","0.00"
"12:24:58","66.7","63.9","90.5","29.95","187","2.6","7","0.98","0.00"
"12:29:59","67","64","90.1","29.95","141","2","5.8","0.98","0.00"
"12:34:56","67","63.6","89","29.95","133","1.9","4","0.98","0.00"
"12:39:59","67","63.7","89.3","29.95","125","2.1","5","0.98","0.00"
"12:44:56","67.2","64.2","89.8","29.95","160","1.5","4.6","0.98","0.00"
"12:49:58","67.5","64.2","89.2","29.95","190","1.3","6","0.98","0.00"
"12:54:56","67.7","64.4","89.4","29.95","197","2.3","6","0.98","0.00"
"12:59:57","67.7","64.1","88.1","29.95","206","1.8","3.5","0.98","0.00"
"13:04:57","67.8","64.2","88.5","29.95","136","2.2","5","0.98","0.00"
"13:09:59","68.3","65","89.2","29.95","172","2.2","4","0.98","0.00"
"13:14:58","68.6","64.8","87.5","29.95","182","1.3","3.5","0.98","0.00"
"13:19:59","68.7","64.7","87.1","29.94","183","1.2","4","0.98","0.00"
"13:24:56","68.7","64.9","87.7","29.94","187","1.6","5","0.98","0.00"
"13:29:57","68.7","65","88","29.95","188","1.7","4.6","0.98","0.00"
"13:34:58","68.7","64.9","87.7","29.95","189","1.6","4","0.98","0.00"
"13:39:56","68.7","65","88","29.95","187","1.3","4","0.98","0.00"
"13:44:58","68.5","64.9","88.2","29.95","184","1","3.5","0.98","0.00"
"13:49:59","68.4","64.9","88.8","29.94","182","1.2","3.5","0.98","0.00"
"13:54:52","68.2","64.8","89","29.94","175","0.9","3.5","0.98","0.00"
"13:59:57","68.2","64.9","89.3","29.94","175","1.3","3.5","0.98","0.00"
"14:04:58","68.1","64.8","89.2","29.94","174","0.8","3.5","0.98","0.00"
"14:09:56","68.2","65.2","89.8","29.94","174","1.1","3.5","0.98","0.00"
"14:14:58","68.4","65.4","89.9","29.95","173","1.3","3.5","0.98","0.00"
"14:19:56","68.7","65.4","89.5","29.95","173","0.9","3.5","0.98","0.00"
"14:24:57","69.2","65.7","88.8","29.95","141","2.3","5","0.98","0.00"
"14:29:58","69.4","65.7","87.8","29.95","129","2.6","5","0.98","0.00"
"14:34:59","70.1","66.3","87.7","29.94","110","2.3","5.8","0.98","0.00"
"14:39:57","71","66.9","86.8","29.94","121","2.2","5","0.98","0.00"
"14:44:58","71.9","67.7","86.5","29.94","183","2.6","6","0.98","0.00"
"14:49:59","72.3","67.2","84.2","29.93","116","2.3","5","0.98","0.00"
"14:54:56","72.8","67.7","84.2","29.93","178","2.7","6","0.98","0.00"
"14:59:57","73.5","67.9","82.6","29.93","149","1.8","5","0.98","0.00"
"15:04:58","74","67.4","80","29.93","134","2.5","5","0.98","0.00"
"15:09:59","74.1","66.9","78.3","29.93","111","3","6","0.98","0.00"
"15:14:58","73.8","67.4","80.5","29.93","113","1.3","4","0.98","0.00"
"15:19:59","74.3","67.6","79.3","29.93","120","1.1","4","0.98","0.00"
"15:24:56","75.2","68.3","79.4","29.93","167","2.6","6","0.98","0.00"
"15:29:57","75.5","67.4","76","29.93","181","2.3","5","0.98","0.00"
"15:34:58","75.8","67.5","75.5","29.93","182","1.8","4","0.98","0.00"
"15:39:56","76.3","67.9","75.4","29.93","194","2.5","5","0.98","0.00"
"15:44:57","76.7","68.4","75.7","29.93","204","0.9","3.5","0.98","0.00"
"15:49:58","77.4","69","75.3","29.92","203","0.5","2.3","0.98","0.00"
"15:54:56","77.5","68.1","72.8","29.92","209","1.6","5","0.98","0.00"
"15:59:57","76.8","67.4","72.7","29.92","208","1.7","4","0.98","0.00"
"16:04:57","76.1","66.7","72.8","29.92","206","0.9","3.5","0.98","0.00"
"16:09:59","75.8","67.5","75.6","29.92","205","1.4","3.5","0.98","0.00"
"16:14:58","75.6","67.3","75.4","29.92","208","1.5","4","0.98","0.00"
"16:19:59","75.3","66.7","74.6","29.92","214","1.1","4","0.98","0.00"
"16:24:56","75.5","67.5","76.3","29.92","269","0.6","3.5","0.98","0.00"
"16:29:57","76.4","67.6","74.2","29.92","272","1.4","4","0.98","0.00"
"16:34:58","76.6","66.8","71.6","29.91","236","1.7","4","0.98","0.00"
"16:39:56","76.4","66.4","71.3","29.91","234","0.5","2.3","0.98","0.00"
"16:44:57","76.3","65.9","70.2","29.91","234","0.4","3.5","0.98","0.00"
"16:49:59","76.3","66.3","71.2","29.91","250","0","0","0.98","0.00"
"16:54:56","76.2","66.2","71.3","29.91","287","0.1","6","0.98","0.00"
"16:59:58","76","66.1","71.5","29.92","315","1.5","6","0.98","0.00"
"17:04:59","76.2","66","70.7","29.92","341","1.4","4","0.98","0.00"
"17:09:57","77.1","66.8","70.5","29.92","292","2.5","6","0.98","0.00"
"17:14:59","77.8","66.7","68.9","29.93","309","1.9","6","0.98","0.00"
"17:19:56","78.1","66.8","68.4","29.93","339","1.1","6","0.98","0.00"
"17:24:57","78.1","66.9","68.7","29.93","340","1","4","0.98","0.00"
"17:29:58","77.8","67.2","69.8","29.93","341","0.9","2.3","0.98","0.00"
"17:34:59","77.1","66.8","70.6","29.93","342","0.4","2.3","0.98","0.00"
"17:39:57","76.8","66.9","71.6","29.93","342","0.7","3.5","0.98","0.00"
"17:44:58","76.5","66.8","72","29.93","342","0.2","1.2","0.98","0.00"
"17:49:59","76.3","66.9","72.7","29.93","342","0.6","3.5","0.98","0.00"
"17:54:57","76.3","66.4","71.5","29.93","338","1.9","5","0.98","0.00"
"17:59:57","76.2","65.6","69.7","29.93","342","2.1","5","0.98","0.00"
"18:04:58","75.9","65.2","69.5","29.93","350","1.6","4.6","0.98","0.00"
"18:09:56","75.7","65","69.6","29.93","337","2.6","9.2","0.98","0.00"
"18:14:58","75.4","64.9","69.9","29.93","336","1.6","4","0.98","0.00"
"18:19:56","75.7","65.3","70.2","29.93","338","0.7","3.5","0.98","0.00"
"18:24:57","76","65.2","69.3","29.93","336","1.2","5","0.98","0.00"
"18:29:58","76.2","65.4","69.4","29.93","308","1.2","5","0.98","0.00"
"18:34:59","76.3","63.9","65.6","29.93","342","3.1","7","0.98","0.00"
"18:39:57","76.3","63.8","65.1","29.93","341","2.1","7","0.98","0.00"
"18:44:58","76.1","62.4","62.7","29.94","331","4.2","10.4","0.98","0.00"
"18:49:56","75.7","61.7","61.9","29.94","345","2.6","8.1","0.98","0.00"
"18:54:57","75.3","61.9","63.1","29.94","327","2.7","9.2","0.98","0.00"
"18:59:58","74.9","60.8","61.6","29.95","329","4.1","12","0.98","0.00"
"19:04:59","74.4","59.5","59.7","29.95","308","2.6","10.4","0.98","0.00"
"19:09:56","74","59","59.6","29.95","330","2","5","0.98","0.00"
"19:14:59","73.8","58.9","59.7","29.95","313","1.9","5","0.98","0.00"
"19:19:56","73.5","59","60.3","29.95","355","0.8","3.5","0.98","0.00"
"19:24:57","73.3","58.8","60.6","29.95","355","0.7","3.5","0.98","0.00"
"19:29:58","72.9","58.7","61","29.95","332","1.4","3.5","0.98","0.00"
"19:34:56","72.6","58.7","61.6","29.95","328","1.9","5","0.98","0.00"
"19:39:58","72.3","58.3","61.6","29.95","338","2.1","5","0.98","0.00"
"19:44:56","71.9","58","61.6","29.96","347","2.5","8.1","0.98","0.00"
"19:49:57","71.6","57.8","61.7","29.96","334","3.4","10","0.98","0.00"
"19:54:59","71.4","57.6","61.9","29.96","342","4","10.4","0.98","0.00"
"19:59:56","71.1","57.4","62","29.96","334","3.9","13","0.98","0.00"
"20:04:49","70.9","57.3","62.2","29.96","328","2.5","11","0.98","0.00"
"20:09:59","70.6","57.2","62.5","29.96","337","3.6","11.5","0.98","0.00"
"20:14:57","70.4","57","62.6","29.97","342","3.6","9.2","0.98","0.00"
"20:19:59","70.1","57.3","63.9","29.97","337","1.5","6","0.98","0.00"
"20:24:57","69.7","56.9","63.9","29.97","334","2","5","0.98","0.00"
"20:29:58","69.4","56.7","64","29.98","334","2.8","11.5","0.98","0.00"
"20:34:56","69.2","56.5","64.1","29.98","329","2.3","10.4","0.98","0.00"
"20:39:58","68.9","56.3","64","29.98","334","2.8","11.5","0.98","0.00"
"20:44:56","68.8","56.2","64.1","29.99","343","1.9","5","0.98","0.00"
"20:49:57","68.6","56.1","64.4","29.99","343","3.1","7","0.98","0.00"
"20:54:58","68.4","55.8","64.2","29.99","335","3.3","9","0.98","0.00"
"20:59:56","68.3","56.1","65","29.99","349","1.6","9.2","0.98","0.00"
"21:04:57","68","56","65.5","29.99","333","1.8","4.6","0.98","0.00"
"21:09:59","67.6","55.9","66.1","29.99","324","2.1","4","0.98","0.00"
"21:14:57","67.3","56.1","67.1","30.01","336","1.8","7","0.98","0.00"
"21:19:59","67.1","55.9","67.2","30.01","323","2.7","7","0.98","0.00"
"21:24:56","67","56","67.8","30.01","333","1.6","4","0.98","0.00"
"21:29:57","66.6","55.9","68.4","30.01","331","0.4","3","0.98","0.00"
"21:34:59","66.1","55.7","69.1","30.01","329","0.9","3.5","0.98","0.00"
"21:39:57","65.7","55.4","69.4","30.01","329","1.6","5","0.98","0.00"
"21:44:59","65.6","55.3","69.5","30.02","340","1.9","4","0.98","0.00"
"21:49:56","65.6","55.5","69.9","30.02","2","1.7","5","0.98","0.00"
"21:54:58","65.5","55.5","70","30.02","9","0.9","3.5","0.98","0.00"
"21:59:59","65.3","55.3","70.1","30.03","9","0.3","3","0.98","0.00"
"22:04:56","65","55.3","70.9","30.03","11","1","3.5","0.98","0.00"
"22:09:58","64.8","55.2","71.2","30.03","11","0.8","3.5","0.98","0.00"
"22:14:59","64.6","55.2","71.5","30.04","356","0.9","5","0.98","0.00"
"22:19:56","64.4","55.1","71.8","30.04","355","0","1.2","0.98","0.00"
"22:24:58","64.2","55.1","72.4","30.04","355","0.4","3.5","0.98","0.00"
"22:29:59","63.9","55.1","73","30.05","355","0","2.3","0.98","0.00"
"22:34:57","63.6","55.2","74","30.05","355","0.1","2.3","0.98","0.00"
"22:39:59","63","55.3","76","30.05","355","0","1","0.98","0.00"
"22:44:57","62.5","55.3","77.4","30.05","355","0","1.2","0.98","0.00"
"22:49:59","61.9","55.3","78.8","30.05","355","0","0","0.98","0.00"
"22:54:57","61.5","54.9","79","30.05","355","0","0","0.98","0.00"
"22:59:59","61.1","54.7","79.6","30.05","355","0","0","0.98","0.00"
"23:04:56","60.8","54.7","80.2","30.05","355","0","0","0.98","0.00"
"23:09:58","60.4","54.5","81","30.05","355","0","0","0.98","0.00"
"23:14:57","60.1","54.5","81.7","30.05","355","0","0","0.98","0.00"
"23:19:59","59.8","54.5","82.7","30.05","355","0","0","0.98","0.00"
"23:24:56","59.5","54.3","83","30.05","355","0","0","0.98","0.00"
"23:29:58","59.3","54.3","83.6","30.06","355","0","0","0.98","0.00"
"23:34:56","59","54.3","84.4","30.06","355","0","0","0.98","0.00"
"23:39:58","58.7","54.2","85.2","30.06","355","0.1","3","0.98","0.00"
"23:44:56","58.3","54.1","86","30.06","355","0.5","4","0.98","0.00"
"23:49:57","58.1","54.2","86.7","30.06","354","0.9","6","0.98","0.00"
"23:54:58","58.3","54.3","86.7","30.06","355","1.6","5.8","0.98","0.00"
"23:59:56","58.7","54.4","85.5","30.07","355","0.6","3","0.98","0.00"
